Location: Stara Lesna
(49.1528°N, 20.2911°E)
Time: 10:13:00
(UTC+02:00)

Cosmos 1302 Rocket - Pass Details

Date: 13 July 2020
Orbit: 757 x 775 km, 74.0° (Epoch: 05 August)

Event Time Altitude Azimuth Distance (km) Brightness Sun altitude
Rises 00:52:33 0° 334° (NNW) 3,232 8.3 -19.0°
Reaches altitude 10° 00:54:57 10° 331° (NNW) 2,300 7.3 -19.0°
Maximum altitude 01:00:05 60° 252° (WSW) 865 4.1 -19.0°
Enters shadow 01:01:57 37° 189° (S) 1,165 4.4 -18.9°
